TimeCDT,TemperatureF,Dew PointF,Humidity,Sea Level PressureIn,VisibilityMPH,Wind Direction,Wind SpeedMPH,Gust SpeedMPH,PrecipitationIn,Events,Conditions,WindDirDegrees,DateUTC
12:06 AM,57.2,57.2,100,30.29,10.0,North,15.0,-,N/A,,Light Drizzle,10,2012-09-14 05:06:00
12:24 AM,57.2,57.2,100,30.29,10.0,North,13.8,-,N/A,,Overcast,360,2012-09-14 05:24:00
12:29 AM,57.2,57.2,100,30.29,10.0,North,12.7,-,N/A,,Overcast,360,2012-09-14 05:29:00
12:32 AM,57.2,57.2,100,30.29,10.0,North,11.5,-,N/A,,Overcast,360,2012-09-14 05:32:00
12:36 AM,57.2,57.2,100,30.29,10.0,North,13.8,-,N/A,,Overcast,350,2012-09-14 05:36:00
12:41 AM,57.2,57.2,100,30.29,10.0,North,15.0,-,N/A,,Overcast,360,2012-09-14 05:41:00
12:55 AM,57.4,56.3,96,30.28,10.0,North,17.3,25.3,0.00,,Overcast,10,2012-09-14 05:55:00
1:12 AM,57.2,55.4,94,30.28,10.0,North,13.8,-,N/A,,Overcast,10,2012-09-14 06:12:00
1:43 AM,59.0,55.4,88,30.27,10.0,North,15.0,-,N/A,,Overcast,10,2012-09-14 06:43:00
1:55 AM,58.1,55.2,90,30.27,10.0,North,17.3,-,N/A,,Overcast,360,2012-09-14 06:55:00
2:55 AM,58.3,55.0,89,30.26,10.0,North,17.3,-,N/A,,Overcast,10,2012-09-14 07:55:00
3:00 AM,59.0,55.4,88,30.26,10.0,North,16.1,-,N/A,,Overcast,10,2012-09-14 08:00:00
3:55 AM,57.9,55.0,90,30.25,10.0,North,16.1,20.7,N/A,,Overcast,360,2012-09-14 08:55:00
4:55 AM,57.9,55.0,90,30.25,10.0,North,16.1,-,N/A,,Overcast,10,2012-09-14 09:55:00
5:55 AM,57.9,55.6,92,30.26,10.0,North,13.8,-,N/A,,Overcast,10,2012-09-14 10:55:00
6:55 AM,57.6,56.3,96,30.27,10.0,North,10.4,-,N/A,,Overcast,10,2012-09-14 11:55:00
6:57 AM,57.2,55.4,94,30.27,10.0,North,12.7,-,N/A,,Overcast,10,2012-09-14 11:57:00
7:45 AM,57.2,55.4,94,30.28,10.0,North,11.5,-,N/A,,Overcast,10,2012-09-14 12:45:00
7:55 AM,57.9,55.4,91,30.28,10.0,North,11.5,-,N/A,,Overcast,10,2012-09-14 12:55:00
8:38 AM,59.0,55.4,88,30.28,10.0,North,15.0,-,N/A,,Overcast,10,2012-09-14 13:38:00
8:55 AM,58.5,55.2,89,30.28,10.0,North,12.7,-,N/A,,Overcast,360,2012-09-14 13:55:00
8:56 AM,59.0,55.4,88,30.28,10.0,North,13.8,-,N/A,,Overcast,10,2012-09-14 13:56:00
8:59 AM,59.0,55.4,88,30.28,10.0,North,10.4,-,N/A,,Overcast,10,2012-09-14 13:59:00
9:35 AM,59.0,55.4,88,30.29,10.0,NNE,11.5,-,N/A,,Overcast,20,2012-09-14 14:35:00
9:39 AM,59.0,55.4,88,30.29,10.0,North,11.5,-,N/A,,Light Drizzle,10,2012-09-14 14:39:00
9:42 AM,59.0,55.4,88,30.29,10.0,North,11.5,-,N/A,,Light Drizzle,10,2012-09-14 14:42:00
9:55 AM,58.1,56.1,93,30.29,10.0,North,12.7,-,0.00,,Light Drizzle,10,2012-09-14 14:55:00
9:59 AM,57.2,57.2,100,30.30,10.0,NNE,12.7,-,N/A,,Overcast,20,2012-09-14 14:59:00
10:00 AM,57.2,57.2,100,30.30,10.0,NNE,13.8,-,N/A,,Overcast,20,2012-09-14 15:00:00
10:08 AM,57.2,57.2,100,30.30,10.0,NNE,13.8,-,N/A,,Overcast,20,2012-09-14 15:08:00
10:55 AM,58.6,55.6,90,30.31,10.0,NNE,11.5,-,0.00,,Overcast,30,2012-09-14 15:55:00
11:25 AM,59.0,55.4,88,30.30,10.0,NNE,15.0,-,N/A,,Overcast,20,2012-09-14 16:25:00
11:55 AM,59.9,55.0,84,30.30,10.0,North,12.7,-,N/A,,Overcast,10,2012-09-14 16:55:00
12:55 PM,61.2,55.4,81,30.29,10.0,North,16.1,-,N/A,,Overcast,360,2012-09-14 17:55:00
1:55 PM,61.0,55.2,81,30.28,10.0,North,16.1,-,N/A,,Overcast,350,2012-09-14 18:55:00
2:55 PM,61.0,55.0,81,30.27,10.0,North,15.0,-,N/A,,Overcast,10,2012-09-14 19:55:00
3:55 PM,60.3,54.5,81,30.27,10.0,NNE,13.8,-,N/A,,Overcast,20,2012-09-14 20:55:00
4:55 PM,60.4,54.7,81,30.25,10.0,NNE,12.7,-,N/A,,Overcast,20,2012-09-14 21:55:00
5:55 PM,60.6,54.9,81,30.24,10.0,NNE,12.7,-,N/A,,Overcast,20,2012-09-14 22:55:00
6:55 PM,60.1,54.9,83,30.25,10.0,NNE,10.4,-,N/A,,Overcast,20,2012-09-14 23:55:00
7:55 PM,59.7,55.2,85,30.25,10.0,NE,9.2,-,N/A,,Overcast,40,2012-09-15 00:55:00
8:55 PM,59.5,55.4,86,30.25,10.0,NNE,10.4,-,N/A,,Overcast,30,2012-09-15 01:55:00
9:24 PM,59.0,55.4,88,30.26,10.0,NNE,9.2,-,N/A,,Overcast,30,2012-09-15 02:24:00
9:55 PM,59.2,55.9,89,30.26,10.0,NNE,8.1,-,N/A,,Overcast,30,2012-09-15 02:55:00
10:37 PM,59.0,55.4,88,30.27,10.0,NNE,8.1,-,N/A,,Overcast,30,2012-09-15 03:37:00
10:46 PM,59.0,55.4,88,30.27,10.0,NE,9.2,-,N/A,,Overcast,40,2012-09-15 03:46:00
10:55 PM,59.2,55.0,86,30.27,10.0,NE,8.1,-,N/A,,Overcast,40,2012-09-15 03:55:00
11:07 PM,59.0,55.4,88,30.27,10.0,NE,6.9,-,N/A,,Overcast,40,2012-09-15 04:07:00
11:55 PM,59.2,55.4,87,30.27,10.0,NNE,8.1,-,N/A,,Overcast,30,2012-09-15 04:55:00